Location: Unspecified
(49.2170°N, 0.0000°E)
Time: 18:58:33
(UTC+00:00)

A-11 Canister half - Pass Details

Date: 24 January 2021
Orbit: 1516 x 1684 km, 47.2° (Epoch: 05 March)

Event Time Altitude Azimuth Distance (km) Brightness Sun altitude
Rises 20:58:30 0° 237° (WSW) 4,739 12.0 -41.0°
Reaches altitude 10° 21:01:38 10° 235° (SW) 3,736 11.3 -41.5°
Enters shadow 21:06:33 35° 223° (SW) 2,302 9.9 -42.2°
